This is the latest recevied weather packets stored in our database for station/object N0HOT. If no packets are shown the sender has not sent any weather packets the latest 10 day(s).
| Time | Temp. | Humidity | Pressure | Rain* | Wind** | Luminosity | Snow |
|---|---|---|---|---|---|---|---|
| 1777844498 | 24.44° C | 20% | 1003.5 hPa | 0 mm | - | 506 W/m² | - |
| 1777844192 | 24.44° C | 21% | 1003.2 hPa | 0 mm | - | 492 W/m² | - |
| 1777843888 | 24.44° C | 19% | 1003.5 hPa | 0 mm | - | 484 W/m² | - |
| 1777843586 | 24.44° C | 19% | 1003.2 hPa | 0 mm | - | 491 W/m² | - |
| 1777843283 | 25° C | 20% | 1003.5 hPa | 0 mm | - | 517 W/m² | - |
| 1777842981 | 25° C | 20% | 1003.5 hPa | 0 mm | - | 535 W/m² | - |
| 1777842676 | 24.44° C | 19% | 1003.5 hPa | 0 mm | - | 540 W/m² | - |
| 1777842373 | 24.44° C | 21% | 1003.5 hPa | 0 mm | - | 512 W/m² | - |
| 1777842069 | 24.44° C | 19% | 1003.5 hPa | 0 mm | - | 503 W/m² | - |
| 1777841765 | 24.44° C | 19% | 1003.5 hPa | 0 mm | - | 560 W/m² | - |
| 1777841461 | 24.44° C | 20% | 1003.5 hPa | 0 mm | - | 597 W/m² | - |
| 1777841158 | 24.44° C | 19% | 1003.8 hPa | 0 mm | - | 638 W/m² | - |
| 1777840856 | 24.44° C | 22% | 1003.8 hPa | 0 mm | - | 642 W/m² | - |
| 1777840553 | 24.44° C | 22% | 1003.8 hPa | 0 mm | - | 665 W/m² | - |
| 1777840250 | 24.44° C | 20% | 1003.5 hPa | 0 mm | - | 675 W/m² | - |
| 1777839948 | 24.44° C | 24% | 1003.8 hPa | 0 mm | - | 681 W/m² | - |
| 1777839645 | 24.44° C | 22% | 1004.2 hPa | 0 mm | - | 682 W/m² | - |
| 1777839343 | 24.44° C | 26% | 1004.2 hPa | 0 mm | - | 647 W/m² | - |
| 1777839040 | 24.44° C | 23% | 1003.8 hPa | 0 mm | - | 715 W/m² | - |
| 1777838736 | 24.44° C | 24% | 1003.5 hPa | 0 mm | - | 747 W/m² | - |
| 1777838433 | 24.44° C | 25% | 1003.5 hPa | 0 mm | - | 762 W/m² | - |
| 1777838130 | 24.44° C | 25% | 1003.8 hPa | 0 mm | - | 770 W/m² | - |
| 1777837827 | 24.44° C | 23% | 1003.8 hPa | 0 mm | - | 739 W/m² | - |
| 1777837524 | 24.44° C | 23% | 1004.2 hPa | 0 mm | - | 755 W/m² | - |
| 1777837224 | 24.44° C | 26% | 1003.8 hPa | 0 mm | - | 771 W/m² | - |
* Rain latest hour (hover to see other rain measurements)
** Current wind speed in m/s (hover to see current wind gust speed)